| time (UTC) | temp F | wind direction | speed MPH | gust MPH | rain 1hr in | rain 24hr in | rain mn in | humidity % | barometer mb |
| 20260510130050 | 65 | 72 | 0.0 | 3.0 | 0.00 | 0.65 | 0.00 | 99 | 1017.2 |
| 20260510124543 | 65 | 105 | 1.0 | 3.0 | 0.00 | 0.77 | 0.00 | 99 | 1017.0 |
| 20260510123056 | 64 | 0 | 0.0 | 3.0 | 0.00 | 0.77 | 0.00 | 99 | 1016.9 |
| 20260510121548 | 64 | 0 | 0.0 | 2.0 | 0.00 | 0.77 | 0.00 | 99 | 1016.7 |
| 20260510120040 | 63 | 147 | 1.0 | 3.0 | 0.00 | 0.77 | 0.00 | 99 | 1016.4 |
| 20260510114605 | 63 | 0 | 0.0 | 2.0 | 0.00 | 0.77 | 0.00 | 99 | 1016.1 |
| 20260510113054 | 63 | 124 | 0.0 | 3.0 | 0.00 | 0.77 | 0.00 | 99 | 1015.8 |
| 20260510111543 | 62 | 70 | 1.0 | 4.0 | 0.00 | 0.77 | 0.00 | 98 | 1015.4 |
| 20260510110045 | 62 | 82 | 1.0 | 3.0 | 0.00 | 0.77 | 0.00 | 98 | 1015.2 |
| 20260510104556 | 62 | 0 | 0.0 | 1.0 | 0.00 | 0.77 | 0.00 | 98 | 1014.8 |
| 20260510103039 | 62 | 67 | 1.0 | 2.0 | 0.00 | 0.77 | 0.00 | 98 | 1014.6 |
| 20260510101545 | 62 | 0 | 0.0 | 2.0 | 0.00 | 0.77 | 0.00 | 98 | 1014.6 |
| 20260510100057 | 62 | 0 | 0.0 | 1.0 | 0.00 | 0.77 | 0.00 | 98 | 1014.6 |
| 20260510094551 | 62 | 0 | 0.0 | 1.0 | 0.00 | 0.77 | 0.00 | 98 | 1014.5 |
| 20260510093041 | 63 | 0 | 0.0 | 1.0 | 0.00 | 0.77 | 0.00 | 98 | 1014.3 |
| 20260510091549 | 63 | 0 | 0.0 | 1.0 | 0.00 | 0.77 | 0.00 | 98 | 1014.4 |
| 20260510090046 | 63 | 0 | 0.0 | 1.0 | 0.00 | 0.77 | 0.00 | 98 | 1014.1 |
| 20260510084542 | 63 | 0 | 0.0 | 2.0 | 0.00 | 0.78 | 0.00 | 98 | 1014.0 |
| 20260510083044 | 63 | 0 | 0.0 | 2.0 | 0.00 | 0.78 | 0.00 | 98 | 1013.9 |
| 20260510081542 | 63 | 14 | 1.0 | 4.0 | 0.00 | 0.78 | 0.00 | 98 | 1013.9 |
| 20260510080051 | 64 | 289 | 1.0 | 2.0 | 0.00 | 0.78 | 0.00 | 98 | 1013.8 |
| 20260510074604 | 64 | 0 | 0.0 | 0.0 | 0.00 | 0.80 | 0.00 | 98 | 1013.7 |
| 20260510073047 | 64 | 0 | 0.0 | 1.0 | 0.00 | 0.80 | 0.00 | 98 | 1013.9 |
| 20260510071540 | 64 | 0 | 0.0 | 3.0 | 0.00 | 0.80 | 0.00 | 98 | 1013.9 |
| 20260510070100 | 64 | 179 | 0.0 | 2.0 | 0.00 | 0.80 | 0.00 | 98 | 1013.9 |
| 20260510064546 | 64 | 0 | 0.0 | 2.0 | 0.00 | 0.80 | 0.00 | 98 | 1013.6 |
| 20260510063044 | 64 | 79 | 0.0 | 1.0 | 0.00 | 0.80 | 0.00 | 98 | 1013.4 |
| 20260510061546 | 64 | 0 | 0.0 | 2.0 | 0.00 | 0.80 | 0.00 | 98 | 1013.5 |
| 20260510060043 | 64 | 319 | 0.0 | 2.0 | 0.00 | 0.80 | 0.00 | 98 | 1013.6 |
| 20260510054546 | 64 | 0 | 0.0 | 1.0 | 0.00 | 0.80 | 0.00 | 98 | 1013.5 |
| 20260510053041 | 64 | 0 | 0.0 | 1.0 | 0.00 | 0.80 | 0.00 | 98 | 1013.5 |
| 20260510051544 | 65 | 0 | 0.0 | 1.0 | 0.00 | 0.80 | 0.00 | 98 | 1013.4 |
| 20260510050047 | 65 | 0 | 0.0 | 1.0 | 0.00 | 0.80 | 0.00 | 98 | 1013.7 |
| 20260510044542 | 65 | 71 | 0.0 | 2.0 | 0.00 | 0.80 | 0.80 | 98 | 1013.7 |
| 20260510043040 | 65 | 0 | 0.0 | 1.0 | 0.00 | 0.80 | 0.80 | 98 | 1013.8 |
| 20260510041550 | 65 | 0 | 0.0 | 2.0 | 0.00 | 0.80 | 0.80 | 98 | 1014.4 |
| 20260510040048 | 65 | 0 | 0.0 | 1.0 | 0.00 | 0.80 | 0.80 | 98 | 1014.5 |
| 20260510034545 | 65 | 0 | 1.0 | 5.0 | 0.00 | 0.80 | 0.80 | 98 | 1014.6 |
| 20260510033054 | 66 | 174 | 0.0 | 2.0 | 0.00 | 0.80 | 0.80 | 98 | 1014.8 |
| 20260510031543 | 66 | 340 | 1.0 | 3.0 | 0.00 | 0.80 | 0.80 | 98 | 1015.1 |
| 20260510030049 | 66 | 0 | 0.0 | 3.0 | 0.00 | 0.80 | 0.80 | 98 | 1014.7 |
| 20260510024546 | 66 | 0 | 0.0 | 2.0 | 0.00 | 0.80 | 0.80 | 98 | 1014.1 |
| 20260510023042 | 66 | 123 | 1.0 | 2.0 | 0.00 | 0.80 | 0.80 | 98 | 1013.9 |
| 20260510021541 | 66 | 0 | 0.0 | 2.0 | 0.01 | 0.80 | 0.80 | 98 | 1014.1 |
| 20260510020044 | 66 | 0 | 1.0 | 3.0 | 0.01 | 0.80 | 0.80 | 97 | 1014.2 |
| 20260510014549 | 66 | 86 | 1.0 | 3.0 | 0.01 | 0.81 | 0.80 | 97 | 1013.5 |
| 20260510013046 | 66 | 21 | 0.0 | 2.0 | 0.01 | 0.81 | 0.80 | 97 | 1013.9 |
| 20260510011542 | 66 | 0 | 0.0 | 1.0 | 0.00 | 0.80 | 0.79 | 97 | 1013.7 |
| 20260510010049 | 66 | 0 | 0.0 | 2.0 | 0.00 | 0.80 | 0.79 | 97 | 1013.6 |
| 20260510004541 | 66 | 0 | 0.0 | 1.0 | 0.00 | 0.81 | 0.79 | 97 | 1013.6 |
| 20260510003054 | 67 | 0 | 0.0 | 1.0 | 0.00 | 0.81 | 0.79 | 96 | 1014.0 |
| 20260510001547 | 67 | 127 | 0.0 | 2.0 | 0.00 | 0.81 | 0.79 | 96 | 1013.8 |
| 20260510000051 | 67 | 208 | 0.0 | 2.0 | 0.00 | 0.81 | 0.79 | 96 | 1013.3 |
| 20260509234549 | 67 | 0 | 0.0 | 1.0 | 0.00 | 0.83 | 0.79 | 96 | 1012.9 |
| 20260509233043 | 67 | 0 | 0.0 | 2.0 | 0.00 | 0.83 | 0.79 | 96 | 1013.1 |
| 20260509231542 | 67 | 271 | 2.0 | 4.0 | 0.00 | 0.83 | 0.79 | 96 | 1013.3 |
| 20260509230044 | 67 | 0 | 0.0 | 3.0 | 0.00 | 0.83 | 0.79 | 96 | 1012.5 |
| 20260509224550 | 67 | 187 | 1.0 | 4.0 | 0.00 | 0.87 | 0.79 | 96 | 1012.8 |
| 20260509223047 | 66 | 243 | 0.0 | 2.0 | 0.00 | 0.87 | 0.79 | 96 | 1013.2 |
| 20260509221541 | 66 | 0 | 1.0 | 6.0 | 0.00 | 0.87 | 0.79 | 97 | 1012.8 |
| 20260509220059 | 66 | 127 | 0.0 | 3.0 | 0.00 | 0.87 | 0.79 | 96 | 1012.0 |
| 20260509214550 | 66 | 0 | 0.0 | 2.0 | 0.00 | 1.07 | 0.79 | 97 | 1012.4 |
| 20260509213049 | 66 | 293 | 1.0 | 3.0 | 0.00 | 1.07 | 0.79 | 96 | 1012.5 |
| 20260509211553 | 66 | 345 | 1.0 | 4.0 | 0.00 | 1.07 | 0.79 | 96 | 1012.3 |
| 20260509210055 | 66 | 304 | 1.0 | 4.0 | 0.00 | 1.07 | 0.79 | 97 | 1012.6 |
| 20260509204558 | 66 | 0 | 1.0 | 4.0 | 0.00 | 1.27 | 0.79 | 97 | 1012.5 |
| 20260509203100 | 65 | 276 | 2.0 | 6.0 | 0.00 | 1.27 | 0.79 | 97 | 1012.4 |
| 20260509201543 | 66 | 280 | 2.0 | 4.0 | 0.00 | 1.27 | 0.79 | 98 | 1012.9 |
| 20260509200049 | 65 | 291 | 2.0 | 5.0 | 0.00 | 1.27 | 0.79 | 97 | 1012.0 |
| 20260509194545 | 65 | 286 | 0.0 | 3.0 | 0.00 | 1.35 | 0.79 | 98 | 1012.1 |
| 20260509193045 | 65 | 0 | 1.0 | 4.0 | 0.00 | 1.35 | 0.79 | 98 | 1012.0 |
| 20260509191553 | 65 | 0 | 0.0 | 5.0 | 0.00 | 1.35 | 0.79 | 98 | 1011.8 |
| 20260509190044 | 65 | 335 | 0.0 | 4.0 | 0.00 | 1.35 | 0.79 | 98 | 1012.3 |
| 20260509184546 | 65 | 223 | 2.0 | 7.0 | 0.01 | 1.36 | 0.79 | 98 | 1012.5 |
| 20260509183043 | 65 | 130 | 1.0 | 3.0 | 0.01 | 1.36 | 0.79 | 98 | 1012.8 |
| 20260509181543 | 65 | 257 | 3.0 | 7.0 | 0.02 | 1.36 | 0.79 | 98 | 1012.4 |
| 20260509180044 | 64 | 170 | 2.0 | 5.0 | 0.02 | 1.36 | 0.79 | 98 | 1012.0 |
| 20260509174553 | 64 | 263 | 2.0 | 8.0 | 0.05 | 2.28 | 0.78 | 98 | 1012.6 |
| 20260509173055 | 64 | 214 | 2.0 | 7.0 | 0.07 | 2.28 | 0.78 | 98 | 1012.2 |
| 20260509171553 | 64 | 295 | 2.0 | 8.0 | 0.09 | 2.27 | 0.77 | 98 | 1012.5 |
| 20260509170046 | 64 | 101 | 2.0 | 6.0 | 0.10 | 2.27 | 0.77 | 98 | 1010.9 |
| 20260509164549 | 63 | 80 | 1.0 | 9.0 | 0.08 | 2.43 | 0.73 | 98 | 1013.2 |
| 20260509163048 | 63 | 157 | 2.0 | 7.0 | 0.12 | 2.41 | 0.71 | 98 | 1013.6 |
| 20260509161547 | 63 | 133 | 2.0 | 7.0 | 0.17 | 2.38 | 0.68 | 98 | 1014.0 |
| 20260509160047 | 63 | 286 | 3.0 | 7.0 | 0.20 | 2.36 | 0.67 | 98 | 1013.1 |
| 20260509154559 | 63 | 352 | 3.0 | 7.0 | 0.23 | 2.34 | 0.65 | 98 | 1014.1 |
| 20260509153049 | 63 | 0 | 1.0 | 3.0 | 0.19 | 2.28 | 0.58 | 98 | 1014.2 |
| 20260509151553 | 63 | 151 | 0.0 | 2.0 | 0.16 | 2.21 | 0.51 | 98 | 1014.4 |
| 20260509150048 | 63 | 0 | 0.0 | 3.0 | 0.13 | 2.17 | 0.47 | 98 | 1014.6 |
| 20260509144600 | 63 | 8 | 0.0 | 2.0 | 0.11 | 2.11 | 0.42 | 98 | 1014.4 |
| 20260509143049 | 63 | 96 | 0.0 | 3.0 | 0.11 | 2.08 | 0.39 | 98 | 1014.4 |
| 20260509141542 | 63 | 0 | 0.0 | 8.0 | 0.18 | 2.05 | 0.35 | 98 | 1014.8 |
| 20260509140057 | 63 | 24 | 1.0 | 5.0 | 0.18 | 2.04 | 0.34 | 98 | 1014.1 |
| 20260509134551 | 63 | 12 | 1.0 | 12.0 | 0.19 | 2.01 | 0.31 | 98 | 1014.8 |
| 20260509133048 | 63 | 32 | 4.0 | 11.0 | 0.25 | 1.98 | 0.28 | 98 | 1014.3 |
| 20260509131553 | 63 | 332 | 2.0 | 9.0 | 0.14 | 1.87 | 0.17 | 98 | 1015.1 |